Location: Cassano d�Adda
(45.5333°N, 9.5167°E)
Time: 00:11:04
(UTC+00:00)

Cosmos 1500 - Pass Details

Date: 08 December 2019
Orbit: 499 x 521 km, 82.5° (Epoch: 19 January)

Event Time Altitude Azimuth Distance (km) Brightness Sun altitude
Rises 16:45:52 0° 352° (N) 2,623 6.6 -11.4°
Reaches altitude 10° 16:48:01 10° 354° (N) 1,729 5.7 -11.7°
Maximum altitude 16:51:48 75° 81° (E) 527 3.0 -12.3°
Drops below altitude 10° 16:55:32 10° 167° (SSE) 1,704 5.9 -13.0°
Sets 16:57:38 0° 169° (S) 2,580 6.9 -13.3°
